GW1158 Weather Reports


Display with metric or nautical units.
time (UTC)temp
F
wind
direction
speed
MPH
gust
MPH
rain 1hr
in
rain 24hr
in
rain mn
in
humidity
%
barometer
mb
20260504141032 50 236 1.0 2.0 0.00 0.00 0.00 38 1013.4
20260504140533 50 246 0.0 1.0 0.00 0.00 0.00 37 1013.4
20260504130534 41 282 1.0 2.0 0.00 0.00 0.00 46 1013.5
20260504110533 40 0 0.0 2.0 0.00 0.00 0.00 43 1013.1
20260504100530 41 227 1.0 2.0 0.00 0.00 0.00 41 1013.2
20260504090104 41 229 2.0 3.0 0.00 0.00 0.00 42 1013.3
20260504081547 42 242 1.0 3.0 0.00 0.00 0.00 43 1013.8
20260504081034 41 239 1.0 2.0 0.00 0.00 0.00 44 1013.8
20260504080533 41 0 1.0 2.0 0.00 0.00 0.00 45 1013.8
20260504050530 45 238 0.0 1.0 0.00 0.00 0.00 38 1015.2
20260504045537 45 210 0.0 1.0 0.00 0.00 0.00 39 1015.2
20260504045033 45 0 0.0 1.0 0.00 0.00 0.00 39 1015.3
20260504044548 45 0 0.0 1.0 0.00 0.00 0.00 39 1015.3
20260504044033 45 0 0.0 0.0 0.00 0.00 0.00 39 1015.2
20260504043533 46 0 0.0 1.0 0.00 0.00 0.00 38 1015.3
20260504043049 46 0 0.0 1.0 0.00 0.00 0.00 38 1015.4
20260504042532 47 0 0.0 1.0 0.00 0.00 0.00 37 1015.3
20260504042032 47 0 0.0 1.0 0.00 0.00 0.00 37 1015.3
20260504041542 48 226 0.0 1.0 0.00 0.00 0.00 35 1015.1
20260504041032 48 0 0.0 1.0 0.00 0.00 0.00 35 1015.2
20260504040535 48 0 0.0 1.0 0.00 0.00 0.00 35 1015.1
20260504040110 48 0 0.0 3.0 0.00 0.00 0.00 35 1015.2
20260504035533 48 255 0.0 3.0 0.00 0.00 0.00 35 1015.2
20260504035030 49 255 1.0 3.0 0.00 0.00 0.00 35 1015.2
20260504034550 49 195 0.0 1.0 0.00 0.00 0.00 34 1015.1
20260504034033 49 0 0.0 1.0 0.00 0.00 0.00 33 1015.1
20260504033536 50 0 0.0 2.0 0.00 0.00 0.00 33 1015.1
20260504033046 50 108 0.0 3.0 0.00 0.00 0.00 31 1015.0
20260504032539 51 95 1.0 3.0 0.00 0.00 0.00 31 1014.9
20260504032035 51 0 0.0 3.0 0.00 0.00 0.00 30 1014.8
20260504031553 51 136 1.0 2.0 0.00 0.00 0.00 30 1014.9
20260504031033 52 91 1.0 2.0 0.00 0.00 0.00 30 1014.9
20260504030534 52 134 0.0 1.0 0.00 0.00 0.00 29 1014.7
20260504030050 54 0 0.0 2.0 0.00 0.00 0.00 27 1014.6
20260504025533 54 325 0.0 6.0 0.00 0.00 0.00 26 1014.6
20260504025033 55 261 1.0 9.0 0.00 0.00 0.00 24 1014.6
20260504024550 56 269 2.0 9.0 0.00 0.00 0.00 24 1014.5
20260504024033 56 240 2.0 9.0 0.00 0.00 0.00 24 1014.4
20260504023533 56 250 1.0 9.0 0.00 0.00 0.00 24 1014.3
20260504023048 56 335 4.0 9.0 0.00 0.00 0.00 24 1014.3
20260504022533 56 233 3.0 8.0 0.00 0.00 0.00 25 1014.2
20260504022033 56 300 3.0 7.0 0.00 0.00 0.00 25 1014.2
20260504021549 56 210 3.0 6.0 0.00 0.00 0.00 25 1014.1
20260504021039 56 246 2.0 9.0 0.00 0.00 0.00 26 1014.2
20260504020533 57 265 2.0 9.0 0.00 0.00 0.00 25 1014.1
20260504020050 57 273 3.0 9.0 0.00 0.00 0.00 24 1014.1
20260504015535 58 254 1.0 9.0 0.00 0.00 0.00 23 1014.1
20260504015034 59 281 2.0 9.0 0.00 0.00 0.00 23 1014.1
20260504014554 60 260 1.0 5.0 0.00 0.00 0.00 22 1014.1
20260504014034 60 262 1.0 5.0 0.00 0.00 0.00 22 1014.1
20260504013533 60 298 1.0 7.0 0.00 0.00 0.00 23 1014.1
20260504013058 60 275 2.0 8.0 0.00 0.00 0.00 23 1014.2
20260504012534 61 322 2.0 10.0 0.00 0.00 0.00 21 1014.2
20260504012035 61 274 3.0 10.0 0.00 0.00 0.00 21 1014.1
20260504011547 61 282 4.0 10.0 0.00 0.00 0.00 21 1014.2
20260504011032 62 304 1.0 6.0 0.00 0.00 0.00 21 1014.1
20260504010535 62 26 1.0 11.0 0.00 0.00 0.00 20 1014.1
20260504010101 62 341 1.0 11.0 0.00 0.00 0.00 20 1014.1
20260504005533 63 0 1.0 6.0 0.00 0.00 0.00 20 1014.1
20260504005034 63 318 2.0 6.0 0.00 0.00 0.00 20 1014.1
20260504004600 63 272 1.0 5.0 0.00 0.00 0.00 19 1014.2
20260504004034 63 323 1.0 7.0 0.00 0.00 0.00 20 1014.3
20260504003534 63 269 3.0 7.0 0.00 0.00 0.00 19 1014.4
20260504003048 63 304 2.0 5.0 0.00 0.00 0.00 20 1014.5
20260504002533 63 233 1.0 12.0 0.00 0.00 0.00 19 1014.5
20260504002033 63 341 1.0 12.0 0.00 0.00 0.00 19 1014.5
20260504001547 64 274 2.0 12.0 0.00 0.00 0.00 19 1014.5
20260504001031 64 74 2.0 8.0 0.00 0.00 0.00 19 1014.5
20260504000533 64 241 2.0 11.0 0.00 0.00 0.00 19 1014.6
20260504000047 64 312 2.0 11.0 0.00 0.00 0.00 19 1014.6
20260503235534 64 302 1.0 7.0 0.00 0.00 0.00 19 1014.6
20260503235033 64 333 2.0 7.0 0.00 0.00 0.00 20 1014.6
20260503234542 64 338 2.0 7.0 0.00 0.00 0.00 20 1014.7
20260503234033 64 330 2.0 11.0 0.00 0.00 0.00 19 1014.7
20260503233535 65 150 2.0 11.0 0.00 0.00 0.00 18 1014.5
20260503233046 64 259 4.0 11.0 0.00 0.00 0.00 19 1014.7
20260503232532 65 284 1.0 10.0 0.00 0.00 0.00 18 1014.8
20260503232029 64 1 2.0 10.0 0.00 0.00 0.00 19 1014.7
20260503231549 65 21 3.0 8.0 0.00 0.00 0.00 20 1014.8
20260503231030 64 15 2.0 6.0 0.00 0.00 0.00 19 1015.0
20260503230529 64 288 2.0 6.0 0.00 0.00 0.00 18 1015.0
20260503230054 64 0 1.0 8.0 0.00 0.00 0.00 18 1014.9
20260503225532 64 244 2.0 8.0 0.00 0.00 0.00 18 1014.9
20260503225033 64 321 3.0 8.0 0.00 0.00 0.00 19 1015.0
20260503224546 64 247 2.0 9.0 0.00 0.00 0.00 19 1015.0
20260503224033 64 240 4.0 9.0 0.00 0.00 0.00 18 1014.9
20260503223534 64 264 2.0 8.0 0.00 0.00 0.00 18 1015.0
20260503223042 64 307 3.0 8.0 0.00 0.00 0.00 18 1015.2
20260503222532 63 331 1.0 10.0 0.00 0.00 0.00 18 1015.2
20260503222034 63 252 2.0 10.0 0.00 0.00 0.00 19 1015.2
20260503221541 63 7 2.0 9.0 0.00 0.00 0.00 19 1015.3
20260503221036 61 312 2.0 4.0 0.00 0.00 0.00 20 1015.3
20260503220533 60 274 1.0 7.0 0.00 0.00 0.00 20 1015.5
20260503220048 61 236 3.0 7.0 0.00 0.00 0.00 20 1015.5
20260503215533 62 276 2.0 10.0 0.00 0.00 0.00 19 1015.7
20260503215032 63 252 2.0 10.0 0.00 0.00 0.00 19 1015.7
20260503214547 64 288 4.0 10.0 0.00 0.00 0.00 19 1015.8
20260503214037 63 252 2.0 8.0 0.00 0.00 0.00 18 1015.8
20260503213530 62 49 1.0 7.0 0.00 0.00 0.00 21 1016.0
20260503213048 61 262 2.0 7.0 0.00 0.00 0.00 21 1016.1
20260503212534 60 359 1.0 7.0 0.00 0.00 0.00 21 1016.2
20260503212032 60 281 2.0 7.0 0.00 0.00 0.00 21 1016.2
20260503211545 61 304 1.0 6.0 0.00 0.00 0.00 20 1016.3
20260503211035 61 20 1.0 6.0 0.00 0.00 0.00 20 1016.2
20260503210532 61 239 2.0 6.0 0.00 0.00 0.00 19 1016.2
20260503210048 61 3 1.0 3.0 0.00 0.00 0.00 21 1016.4
20260503205533 61 271 0.0 5.0 0.00 0.00 0.00 19 1016.4
20260503205033 61 281 1.0 8.0 0.00 0.00 0.00 20 1016.5
20260503204551 61 322 2.0 8.0 0.00 0.00 0.00 20 1016.5
20260503204033 61 270 2.0 7.0 0.00 0.00 0.00 20 1016.5
20260503203533 61 21 4.0 7.0 0.00 0.00 0.00 19 1016.7
20260503203055 61 232 2.0 6.0 0.00 0.00 0.00 21 1016.7
20260503202533 62 252 1.0 8.0 0.00 0.00 0.00 18 1016.7
20260503202033 64 307 2.0 8.0 0.00 0.00 0.00 17 1016.8
20260503201549 63 226 1.0 8.0 0.00 0.00 0.00 21 1016.7
20260503201029 62 347 2.0 8.0 0.00 0.00 0.00 19 1016.8
20260503200529 62 207 2.0 8.0 0.00 0.00 0.00 21 1016.7
20260503200049 61 217 1.0 8.0 0.00 0.00 0.00 20 1016.9
20260503195534 60 326 3.0 8.0 0.00 0.00 0.00 20 1017.0
20260503195033 61 274 2.0 9.0 0.00 0.00 0.00 20 1017.1
20260503194547 61 253 1.0 9.0 0.00 0.00 0.00 20 1017.1
20260503194033 62 285 2.0 9.0 0.00 0.00 0.00 19 1017.1
20260503193533 63 355 2.0 8.0 0.00 0.00 0.00 19 1017.1
20260503193049 62 234 2.0 14.0 0.00 0.00 0.00 21 1017.2
20260503192532 62 358 4.0 14.0 0.00 0.00 0.00 20 1017.3
20260503192033 64 240 2.0 11.0 0.00 0.00 0.00 19 1017.3
20260503191552 64 230 3.0 11.0 0.00 0.00 0.00 20 1017.4
20260503191033 63 334 1.0 11.0 0.00 0.00 0.00 22 1017.5
20260503190536 62 333 3.0 11.0 0.00 0.00 0.00 22 1017.5
20260503190044 60 354 2.0 6.0 0.00 0.00 0.00 23 1017.7
20260503185532 59 340 2.0 6.0 0.00 0.00 0.00 24 1017.7
20260503185030 60 6 2.0 14.0 0.00 0.00 0.00 23 1017.8
20260503184545 60 324 2.0 14.0 0.00 0.00 0.00 22 1017.9
20260503184032 60 316 4.0 14.0 0.00 0.00 0.00 22 1018.0
20260503183532 61 70 2.0 12.0 0.00 0.00 0.00 22 1017.9
20260503183045 61 10 4.0 12.0 0.00 0.00 0.00 22 1017.9
20260503182533 61 282 2.0 10.0 0.00 0.00 0.00 21 1017.9
20260503182033 61 344 3.0 11.0 0.00 0.00 0.00 20 1018.1
20260503181542 61 281 3.0 11.0 0.00 0.00 0.00 21 1018.1
20260503181034 62 34 3.0 17.0 0.00 0.00 0.00 24 1018.2
20260503180536 61 319 3.0 17.0 0.00 0.00 0.00 22 1018.1
20260503175533 59 316 1.0 5.0 0.00 0.00 0.00 23 1018.4
20260503175033 59 302 2.0 5.0 0.00 0.00 0.00 25 1018.4
20260503174547 59 32 1.0 7.0 0.00 0.00 0.00 23 1018.4
20260503174032 60 192 3.0 7.0 0.00 0.00 0.00 22 1018.6
20260503173533 60 237 2.0 8.0 0.00 0.00 0.00 24 1018.7
20260503173052 60 259 2.0 8.0 0.00 0.00 0.00 23 1018.8
20260503172533 59 313 2.0 6.0 0.00 0.00 0.00 24 1018.8
20260503172032 59 350 2.0 6.0 0.00 0.00 0.00 24 1018.9
20260503171543 59 15 2.0 7.0 0.00 0.00 0.00 26 1018.9
20260503171033 59 270 2.0 9.0 0.00 0.00 0.00 26 1019.0
20260503170534 59 251 2.0 9.0 0.00 0.00 0.00 27 1019.1
20260503150533 52 0 0.0 2.0 0.00 0.00 0.00 35 1019.7